| time (UTC) | temp C | wind direction | speed KPH | gust KPH | rain 1hr cm | rain 24hr cm | rain mn cm | humidity % | barometer mb |
| 20260906223559 | 29 | 286 | 4.8 | 9.7 | 0.00 | 0.00 | 0.00 | 37 | 1016.0 |
| 20260906223108 | 29 | 278 | 4.8 | 9.7 | 0.00 | 0.00 | 0.00 | 37 | 1016.0 |
| 20260906222559 | 29 | 300 | 3.2 | 6.4 | 0.00 | 0.00 | 0.00 | 36 | 1016.2 |
| 20260906222059 | 30 | 302 | 1.6 | 11.3 | 0.00 | 0.00 | 0.00 | 36 | 1016.0 |
| 20260906221604 | 30 | 5 | 1.6 | 11.3 | 0.00 | 0.00 | 0.00 | 35 | 1016.1 |
| 20260906221058 | 30 | 286 | 6.4 | 14.5 | 0.00 | 0.00 | 0.00 | 34 | 1016.2 |
| 20260906220559 | 31 | 279 | 4.8 | 14.5 | 0.00 | 0.00 | 0.00 | 33 | 1016.3 |
| 20260906220104 | 32 | 267 | 4.8 | 9.7 | 0.00 | 0.00 | 0.00 | 32 | 1016.3 |
| 20260906215558 | 32 | 326 | 3.2 | 14.5 | 0.00 | 0.00 | 0.00 | 32 | 1016.5 |
| 20260906215102 | 32 | 317 | 4.8 | 14.5 | 0.00 | 0.00 | 0.00 | 33 | 1016.5 |
| 20260906214602 | 31 | 294 | 6.4 | 12.9 | 0.00 | 0.00 | 0.00 | 33 | 1016.6 |
| 20260906214059 | 31 | 323 | 4.8 | 12.9 | 0.00 | 0.00 | 0.00 | 34 | 1016.6 |
| 20260906213558 | 31 | 352 | 4.8 | 11.3 | 0.00 | 0.00 | 0.00 | 34 | 1016.7 |
| 20260906213100 | 32 | 237 | 3.2 | 8.0 | 0.00 | 0.00 | 0.00 | 33 | 1016.7 |
| 20260906212558 | 31 | 329 | 1.6 | 8.0 | 0.00 | 0.00 | 0.00 | 34 | 1016.8 |
| 20260906212059 | 32 | 26 | 0.0 | 9.7 | 0.00 | 0.00 | 0.00 | 34 | 1016.8 |
| 20260906211601 | 31 | 290 | 3.2 | 9.7 | 0.00 | 0.00 | 0.00 | 33 | 1017.0 |
| 20260906211101 | 29 | 295 | 3.2 | 9.7 | 0.00 | 0.00 | 0.00 | 35 | 1017.1 |
| 20260906210559 | 28 | 11 | 1.6 | 9.7 | 0.00 | 0.00 | 0.00 | 40 | 1017.3 |
| 20260906210114 | 28 | 12 | 1.6 | 8.0 | 0.00 | 0.00 | 0.00 | 37 | 1017.3 |
| 20260906205602 | 28 | 0 | 1.6 | 3.2 | 0.00 | 0.00 | 0.00 | 37 | 1017.5 |
| 20260906205058 | 28 | 352 | 0.0 | 3.2 | 0.00 | 0.00 | 0.00 | 36 | 1017.4 |
| 20260906204608 | 28 | 22 | 0.0 | 3.2 | 0.00 | 0.00 | 0.00 | 40 | 1017.4 |
| 20260906204101 | 28 | 0 | 0.0 | 4.8 | 0.00 | 0.00 | 0.00 | 36 | 1017.5 |
| 20260906203602 | 28 | 19 | 0.0 | 8.0 | 0.00 | 0.00 | 0.00 | 38 | 1017.6 |
| 20260906203103 | 28 | 0 | 1.6 | 8.0 | 0.00 | 0.00 | 0.00 | 39 | 1017.6 |
| 20260906202558 | 29 | 326 | 0.0 | 3.2 | 0.00 | 0.00 | 0.00 | 36 | 1017.6 |
| 20260906202059 | 29 | 0 | 0.0 | 8.0 | 0.00 | 0.00 | 0.00 | 33 | 1017.7 |
| 20260906201607 | 30 | 14 | 0.0 | 12.9 | 0.00 | 0.00 | 0.00 | 31 | 1017.7 |
| 20260906201058 | 30 | 24 | 1.6 | 14.5 | 0.00 | 0.00 | 0.00 | 31 | 1017.8 |
| 20260906200558 | 30 | 87 | 1.6 | 16.1 | 0.00 | 0.00 | 0.00 | 32 | 1017.9 |
| 20260906200120 | 32 | 107 | 3.2 | 16.1 | 0.00 | 0.00 | 0.00 | 29 | 1017.8 |
| 20260906195601 | 33 | 360 | 4.8 | 16.1 | 0.00 | 0.00 | 0.00 | 32 | 1018.0 |
| 20260906195100 | 33 | 126 | 4.8 | 12.9 | 0.00 | 0.00 | 0.00 | 32 | 1018.0 |
| 20260906194623 | 32 | 140 | 3.2 | 12.9 | 0.00 | 0.00 | 0.00 | 31 | 1017.9 |
| 20260906194058 | 32 | 352 | 1.6 | 12.9 | 0.00 | 0.00 | 0.00 | 37 | 1017.9 |
| 20260906193558 | 31 | 71 | 3.2 | 9.7 | 0.00 | 0.00 | 0.00 | 33 | 1018.0 |
| 20260906193104 | 32 | 331 | 1.6 | 16.1 | 0.00 | 0.00 | 0.00 | 34 | 1018.1 |
| 20260906192600 | 32 | 60 | 1.6 | 17.7 | 0.00 | 0.00 | 0.00 | 35 | 1018.1 |
| 20260906192100 | 32 | 128 | 6.4 | 17.7 | 0.00 | 0.00 | 0.00 | 36 | 1018.3 |
| 20260906191604 | 31 | 10 | 3.2 | 14.5 | 0.00 | 0.00 | 0.00 | 40 | 1018.5 |
| 20260906191100 | 30 | 13 | 4.8 | 17.7 | 0.00 | 0.00 | 0.00 | 40 | 1018.6 |
| 20260906190601 | 31 | 56 | 4.8 | 17.7 | 0.00 | 0.00 | 0.00 | 41 | 1018.6 |
| 20260906190150 | 31 | 348 | 4.8 | 16.1 | 0.00 | 0.00 | 0.00 | 36 | 1018.6 |
| 20260906185559 | 31 | 243 | 4.8 | 16.1 | 0.00 | 0.00 | 0.00 | 39 | 1018.7 |
| 20260906185059 | 30 | 69 | 1.6 | 14.5 | 0.00 | 0.00 | 0.00 | 42 | 1018.8 |
| 20260906184605 | 30 | 5 | 1.6 | 8.0 | 0.00 | 0.00 | 0.00 | 44 | 1018.9 |
| 20260906184058 | 30 | 40 | 3.2 | 11.3 | 0.00 | 0.00 | 0.00 | 40 | 1019.1 |
| 20260906183558 | 31 | 22 | 1.6 | 11.3 | 0.00 | 0.00 | 0.00 | 41 | 1019.3 |
| 20260906183111 | 29 | 157 | 3.2 | 12.9 | 0.00 | 0.00 | 0.00 | 43 | 1019.3 |
| 20260906182559 | 30 | 63 | 3.2 | 12.9 | 0.00 | 0.00 | 0.00 | 42 | 1019.4 |
| 20260906182058 | 30 | 360 | 3.2 | 12.9 | 0.00 | 0.00 | 0.00 | 42 | 1019.5 |
| 20260906181603 | 30 | 11 | 3.2 | 12.9 | 0.00 | 0.00 | 0.00 | 43 | 1019.5 |
| 20260906181059 | 27 | 236 | 1.6 | 11.3 | 0.00 | 0.00 | 0.00 | 44 | 1019.5 |
| 20260906180600 | 28 | 157 | 4.8 | 11.3 | 0.00 | 0.00 | 0.00 | 44 | 1019.6 |
| 20260906180103 | 28 | 88 | 3.2 | 11.3 | 0.00 | 0.00 | 0.00 | 42 | 1019.7 |
| 20260906175600 | 29 | 48 | 3.2 | 11.3 | 0.00 | 0.00 | 0.00 | 47 | 1019.8 |
| 20260906175103 | 28 | 100 | 3.2 | 9.7 | 0.00 | 0.00 | 0.00 | 47 | 1019.9 |
| 20260906174607 | 28 | 150 | 1.6 | 6.4 | 0.00 | 0.00 | 0.00 | 50 | 1020.1 |
| 20260906174100 | 26 | 173 | 1.6 | 6.4 | 0.00 | 0.00 | 0.00 | 53 | 1020.2 |
| 20260906173601 | 27 | 0 | 1.6 | 9.7 | 0.00 | 0.00 | 0.00 | 51 | 1020.3 |
| 20260906173120 | 27 | 121 | 1.6 | 9.7 | 0.00 | 0.00 | 0.00 | 53 | 1020.4 |
| 20260906172559 | 26 | 128 | 1.6 | 11.3 | 0.00 | 0.00 | 0.00 | 54 | 1020.5 |
| 20260906172058 | 26 | 0 | 0.0 | 11.3 | 0.00 | 0.00 | 0.00 | 56 | 1020.4 |
| 20260906171604 | 26 | 148 | 3.2 | 12.9 | 0.00 | 0.00 | 0.00 | 56 | 1020.5 |
| 20260906171058 | 26 | 91 | 4.8 | 12.9 | 0.00 | 0.00 | 0.00 | 58 | 1020.5 |
| 20260906170600 | 25 | 70 | 1.6 | 8.0 | 0.00 | 0.00 | 0.00 | 57 | 1020.4 |
| 20260906170110 | 25 | 0 | 1.6 | 8.0 | 0.00 | 0.00 | 0.00 | 57 | 1020.7 |
| 20260906165558 | 24 | 186 | 1.6 | 6.4 | 0.00 | 0.00 | 0.00 | 59 | 1020.8 |
| 20260906165059 | 23 | 222 | 1.6 | 6.4 | 0.00 | 0.00 | 0.00 | 59 | 1020.9 |
| 20260906164604 | 24 | 77 | 1.6 | 6.4 | 0.00 | 0.00 | 0.00 | 59 | 1020.9 |
| 20260906164059 | 24 | 0 | 1.6 | 8.0 | 0.00 | 0.00 | 0.00 | 57 | 1021.1 |
| 20260906163601 | 23 | 17 | 1.6 | 9.7 | 0.00 | 0.00 | 0.00 | 60 | 1021.1 |
| 20260906163106 | 23 | 224 | 4.8 | 9.7 | 0.00 | 0.00 | 0.00 | 61 | 1021.0 |
| 20260906162559 | 22 | 0 | 1.6 | 6.4 | 0.00 | 0.00 | 0.00 | 63 | 1021.0 |
| 20260906162058 | 22 | 14 | 0.0 | 6.4 | 0.00 | 0.00 | 0.00 | 66 | 1021.1 |
| 20260906161604 | 22 | 300 | 0.0 | 6.4 | 0.00 | 0.00 | 0.00 | 62 | 1021.0 |
| 20260906161058 | 22 | 0 | 1.6 | 9.7 | 0.00 | 0.00 | 0.00 | 62 | 1020.9 |
| 20260906160558 | 22 | 340 | 3.2 | 9.7 | 0.00 | 0.00 | 0.00 | 62 | 1021.0 |
| 20260906160104 | 22 | 24 | 3.2 | 9.7 | 0.00 | 0.00 | 0.00 | 64 | 1020.9 |
| 20260906155600 | 21 | 277 | 1.6 | 4.8 | 0.00 | 0.00 | 0.00 | 66 | 1020.9 |
| 20260906155058 | 21 | 347 | 1.6 | 8.0 | 0.00 | 0.00 | 0.00 | 68 | 1021.0 |
| 20260906154610 | 21 | 0 | 1.6 | 8.0 | 0.00 | 0.00 | 0.00 | 68 | 1021.0 |
| 20260906154059 | 21 | 332 | 1.6 | 4.8 | 0.00 | 0.00 | 0.00 | 70 | 1021.0 |
| 20260906153559 | 20 | 360 | 1.6 | 4.8 | 0.00 | 0.00 | 0.00 | 73 | 1021.1 |
| 20260906153102 | 20 | 0 | 1.6 | 6.4 | 0.00 | 0.00 | 0.00 | 73 | 1021.0 |
| 20260906152559 | 20 | 303 | 1.6 | 6.4 | 0.00 | 0.00 | 0.00 | 73 | 1021.2 |
| 20260906152100 | 20 | 127 | 0.0 | 6.4 | 0.00 | 0.00 | 0.00 | 74 | 1021.1 |
| 20260906151606 | 19 | 11 | 1.6 | 6.4 | 0.00 | 0.00 | 0.00 | 76 | 1021.1 |
| 20260906151059 | 19 | 10 | 0.0 | 6.4 | 0.00 | 0.00 | 0.00 | 77 | 1021.2 |
| 20260906150559 | 19 | 71 | 1.6 | 6.4 | 0.00 | 0.00 | 0.00 | 78 | 1021.2 |
| 20260906150107 | 18 | 0 | 0.0 | 4.8 | 0.00 | 0.00 | 0.00 | 80 | 1021.3 |
| 20260906145559 | 18 | 306 | 1.6 | 4.8 | 0.00 | 0.00 | 0.00 | 79 | 1021.2 |
| 20260906145101 | 18 | 5 | 1.6 | 4.8 | 0.00 | 0.00 | 0.00 | 81 | 1021.1 |
| 20260906144605 | 18 | 0 | 1.6 | 4.8 | 0.00 | 0.00 | 0.00 | 80 | 1021.1 |
| 20260906144058 | 18 | 0 | 0.0 | 8.0 | 0.00 | 0.00 | 0.00 | 79 | 1021.3 |
| 20260906143601 | 18 | 17 | 0.0 | 8.0 | 0.00 | 0.00 | 0.00 | 79 | 1021.3 |
| 20260906143111 | 18 | 15 | 3.2 | 6.4 | 0.00 | 0.00 | 0.00 | 78 | 1021.3 |
| 20260906142559 | 18 | 351 | 1.6 | 11.3 | 0.00 | 0.00 | 0.00 | 79 | 1021.3 |
| 20260906142100 | 18 | 360 | 1.6 | 11.3 | 0.00 | 0.00 | 0.00 | 80 | 1021.2 |
| 20260906141605 | 18 | 38 | 3.2 | 6.4 | 0.00 | 0.00 | 0.00 | 81 | 1021.1 |
| 20260906141059 | 17 | 0 | 3.2 | 6.4 | 0.00 | 0.00 | 0.00 | 81 | 1021.2 |
| 20260906140600 | 17 | 360 | 0.0 | 9.7 | 0.00 | 0.00 | 0.00 | 82 | 1021.3 |
| 20260906140105 | 17 | 29 | 3.2 | 11.3 | 0.00 | 0.00 | 0.00 | 81 | 1021.1 |
| 20260906135559 | 17 | 316 | 3.2 | 11.3 | 0.00 | 0.00 | 0.00 | 81 | 1020.9 |
| 20260906135059 | 17 | 15 | 3.2 | 11.3 | 0.00 | 0.00 | 0.00 | 81 | 1020.9 |
| 20260906134603 | 17 | 324 | 0.0 | 4.8 | 0.00 | 0.00 | 0.00 | 81 | 1021.0 |
| 20260906134103 | 17 | 0 | 1.6 | 4.8 | 0.00 | 0.00 | 0.00 | 81 | 1021.1 |
| 20260906133559 | 16 | 0 | 0.0 | 3.2 | 0.00 | 0.00 | 0.00 | 82 | 1021.1 |
| 20260906133119 | 16 | 323 | 1.6 | 3.2 | 0.00 | 0.00 | 0.00 | 81 | 1021.1 |
| 20260906132559 | 16 | 0 | 0.0 | 0.0 | 0.00 | 0.00 | 0.00 | 82 | 1021.0 |
| 20260906132058 | 15 | 0 | 0.0 | 0.0 | 0.00 | 0.00 | 0.00 | 82 | 1021.0 |
| 20260906131604 | 15 | 0 | 0.0 | 0.0 | 0.00 | 0.00 | 0.00 | 82 | 1020.9 |
| 20260906131059 | 15 | 0 | 0.0 | 0.0 | 0.00 | 0.00 | 0.00 | 82 | 1020.8 |
| 20260906130559 | 15 | 0 | 0.0 | 0.0 | 0.00 | 0.00 | 0.00 | 82 | 1021.0 |
| 20260906130117 | 15 | 0 | 0.0 | 0.0 | 0.00 | 0.00 | 0.00 | 83 | 1020.9 |
| 20260906125558 | 15 | 0 | 0.0 | 0.0 | 0.00 | 0.00 | 0.00 | 84 | 1020.9 |
| 20260906125059 | 15 | 0 | 0.0 | 0.0 | 0.00 | 0.00 | 0.00 | 83 | 1020.9 |
| 20260906124604 | 15 | 0 | 0.0 | 0.0 | 0.00 | 0.00 | 0.00 | 82 | 1020.8 |
| 20260906124059 | 15 | 0 | 0.0 | 0.0 | 0.00 | 0.00 | 0.00 | 82 | 1020.7 |
| 20260906123558 | 15 | 0 | 0.0 | 0.0 | 0.00 | 0.00 | 0.00 | 83 | 1020.6 |
| 20260906123105 | 15 | 0 | 0.0 | 0.0 | 0.00 | 0.00 | 0.00 | 83 | 1020.7 |
| 20260906122601 | 15 | 0 | 0.0 | 0.0 | 0.00 | 0.00 | 0.00 | 81 | 1020.7 |
| 20260906122059 | 15 | 0 | 0.0 | 0.0 | 0.00 | 0.00 | 0.00 | 80 | 1020.8 |
| 20260906121601 | 15 | 0 | 0.0 | 0.0 | 0.00 | 0.00 | 0.00 | 80 | 1020.7 |
| 20260906121058 | 16 | 0 | 0.0 | 0.0 | 0.00 | 0.00 | 0.00 | 79 | 1020.6 |
| 20260906120559 | 16 | 0 | 0.0 | 0.0 | 0.00 | 0.00 | 0.00 | 79 | 1020.4 |
| 20260906120104 | 16 | 0 | 0.0 | 0.0 | 0.00 | 0.00 | 0.00 | 79 | 1020.5 |
| 20260906115559 | 16 | 0 | 0.0 | 0.0 | 0.00 | 0.00 | 0.00 | 78 | 1020.6 |
| 20260906115059 | 16 | 0 | 0.0 | 4.8 | 0.00 | 0.00 | 0.00 | 78 | 1020.5 |
| 20260906114602 | 16 | 0 | 0.0 | 4.8 | 0.00 | 0.00 | 0.00 | 79 | 1020.4 |
| 20260906114102 | 15 | 5 | 0.0 | 3.2 | 0.00 | 0.00 | 0.00 | 79 | 1020.7 |
| 20260906113558 | 15 | 5 | 0.0 | 1.6 | 0.00 | 0.00 | 0.00 | 78 | 1020.6 |
| 20260906113104 | 15 | 0 | 0.0 | 4.8 | 0.00 | 0.00 | 0.00 | 77 | 1020.6 |
| 20260906112558 | 16 | 0 | 0.0 | 4.8 | 0.00 | 0.00 | 0.00 | 77 | 1020.6 |
| 20260906112058 | 16 | 5 | 1.6 | 4.8 | 0.00 | 0.00 | 0.00 | 75 | 1020.6 |
| 20260906111602 | 16 | 5 | 0.0 | 4.8 | 0.00 | 0.00 | 0.00 | 75 | 1020.4 |
| 20260906111058 | 16 | 5 | 1.6 | 4.8 | 0.00 | 0.00 | 0.00 | 75 | 1020.3 |
| 20260906110600 | 16 | 333 | 0.0 | 1.6 | 0.00 | 0.00 | 0.00 | 74 | 1020.4 |
| 20260906105559 | 16 | 0 | 0.0 | 3.2 | 0.00 | 0.00 | 0.00 | 73 | 1020.4 |
| 20260906105059 | 16 | 0 | 0.0 | 3.2 | 0.00 | 0.00 | 0.00 | 72 | 1020.6 |
| 20260906104604 | 16 | 311 | 1.6 | 3.2 | 0.00 | 0.00 | 0.00 | 71 | 1020.5 |
| 20260906104058 | 16 | 311 | 0.0 | 3.2 | 0.00 | 0.00 | 0.00 | 72 | 1020.6 |
| 20260906103558 | 16 | 0 | 0.0 | 3.2 | 0.00 | 0.00 | 0.00 | 73 | 1020.5 |
| 20260906103105 | 16 | 0 | 0.0 | 1.6 | 0.00 | 0.00 | 0.00 | 73 | 1020.5 |
| 20260906102600 | 16 | 49 | 0.0 | 1.6 | 0.00 | 0.00 | 0.00 | 73 | 1020.4 |
| 20260906102058 | 16 | 0 | 0.0 | 1.6 | 0.00 | 0.00 | 0.00 | 74 | 1020.5 |
| 20260906101608 | 16 | 0 | 0.0 | 0.0 | 0.00 | 0.00 | 0.00 | 71 | 1020.5 |
| 20260906101059 | 16 | 0 | 0.0 | 3.2 | 0.00 | 0.00 | 0.00 | 71 | 1020.5 |
| 20260906100558 | 16 | 0 | 0.0 | 3.2 | 0.00 | 0.00 | 0.00 | 71 | 1020.4 |
| 20260906100105 | 17 | 49 | 0.0 | 3.2 | 0.00 | 0.00 | 0.00 | 70 | 1020.3 |
| 20260906095601 | 17 | 0 | 0.0 | 0.0 | 0.00 | 0.00 | 0.00 | 69 | 1020.4 |
| 20260906095102 | 17 | 0 | 0.0 | 1.6 | 0.00 | 0.00 | 0.00 | 68 | 1020.3 |
| 20260906094610 | 17 | 0 | 0.0 | 1.6 | 0.00 | 0.00 | 0.00 | 68 | 1020.3 |
| 20260906094058 | 17 | 0 | 0.0 | 1.6 | 0.00 | 0.00 | 0.00 | 68 | 1020.4 |
| 20260906093558 | 17 | 0 | 0.0 | 1.6 | 0.00 | 0.00 | 0.00 | 69 | 1020.4 |
| 20260906093117 | 17 | 0 | 0.0 | 1.6 | 0.00 | 0.00 | 0.00 | 68 | 1020.5 |
| 20260906092602 | 17 | 0 | 0.0 | 1.6 | 0.00 | 0.00 | 0.00 | 67 | 1020.4 |
| 20260906092058 | 17 | 0 | 0.0 | 3.2 | 0.00 | 0.00 | 0.00 | 67 | 1020.2 |
| 20260906091606 | 17 | 0 | 0.0 | 3.2 | 0.00 | 0.00 | 0.00 | 65 | 1020.1 |
| 20260906091101 | 17 | 161 | 0.0 | 3.2 | 0.00 | 0.00 | 0.00 | 65 | 1020.0 |
| 20260906090558 | 18 | 0 | 0.0 | 1.6 | 0.00 | 0.00 | 0.00 | 64 | 1019.9 |
| 20260906090140 | 18 | 0 | 0.0 | 1.6 | 0.00 | 0.00 | 0.00 | 63 | 1019.7 |
| 20260906085601 | 18 | 0 | 0.0 | 8.0 | 0.00 | 0.00 | 0.00 | 62 | 1019.6 |
| 20260906085058 | 18 | 0 | 0.0 | 8.0 | 0.00 | 0.00 | 0.00 | 61 | 1019.6 |
| 20260906084620 | 18 | 158 | 0.0 | 14.5 | 0.00 | 0.00 | 0.00 | 60 | 1019.7 |
| 20260906084058 | 18 | 0 | 3.2 | 14.5 | 0.00 | 0.00 | 0.00 | 60 | 1019.6 |
| 20260906083558 | 19 | 13 | 6.4 | 14.5 | 0.00 | 0.00 | 0.00 | 60 | 1019.4 |
| 20260906083104 | 19 | 11 | 4.8 | 12.9 | 0.00 | 0.00 | 0.00 | 59 | 1019.5 |
| 20260906082557 | 19 | 22 | 4.8 | 14.5 | 0.00 | 0.00 | 0.00 | 58 | 1019.5 |
| 20260906082058 | 19 | 12 | 3.2 | 14.5 | 0.00 | 0.00 | 0.00 | 56 | 1019.6 |
| 20260906081604 | 19 | 5 | 4.8 | 12.9 | 0.00 | 0.00 | 0.00 | 56 | 1019.6 |
| 20260906081100 | 19 | 331 | 6.4 | 12.9 | 0.00 | 0.00 | 0.00 | 56 | 1019.7 |
| 20260906080600 | 19 | 351 | 1.6 | 6.4 | 0.00 | 0.00 | 0.00 | 54 | 1019.7 |
| 20260906080110 | 19 | 15 | 3.2 | 11.3 | 0.00 | 0.00 | 0.00 | 54 | 1019.7 |
| 20260906075558 | 20 | 9 | 1.6 | 11.3 | 0.00 | 0.00 | 0.00 | 51 | 1019.6 |
| 20260906075058 | 20 | 12 | 4.8 | 9.7 | 0.00 | 0.00 | 0.00 | 50 | 1019.7 |
| 20260906074604 | 20 | 360 | 4.8 | 8.0 | 0.00 | 0.00 | 0.00 | 49 | 1019.6 |
| 20260906074059 | 20 | 11 | 3.2 | 8.0 | 0.00 | 0.00 | 0.00 | 49 | 1019.5 |
| 20260906073600 | 21 | 5 | 3.2 | 6.4 | 0.00 | 0.00 | 0.00 | 50 | 1019.6 |
| 20260906073102 | 21 | 24 | 3.2 | 8.0 | 0.00 | 0.00 | 0.00 | 49 | 1019.7 |
| 20260906072559 | 21 | 27 | 1.6 | 12.9 | 0.00 | 0.00 | 0.00 | 49 | 1019.7 |
| 20260906072057 | 21 | 5 | 4.8 | 12.9 | 0.00 | 0.00 | 0.00 | 49 | 1019.7 |
| 20260906071602 | 21 | 30 | 3.2 | 8.0 | 0.00 | 0.00 | 0.00 | 49 | 1019.8 |
| 20260906071058 | 21 | 11 | 1.6 | 3.2 | 0.00 | 0.00 | 0.00 | 49 | 1019.7 |
| 20260906070601 | 20 | 40 | 0.0 | 3.2 | 0.00 | 0.00 | 0.00 | 51 | 1019.6 |
| 20260906070106 | 20 | 47 | 0.0 | 3.2 | 0.00 | 0.00 | 0.00 | 52 | 1019.5 |
| 20260906065600 | 20 | 5 | 0.0 | 3.2 | 0.00 | 0.00 | 0.00 | 52 | 1019.6 |
| 20260906065059 | 20 | 0 | 1.6 | 3.2 | 0.00 | 0.00 | 0.00 | 51 | 1019.7 |
| 20260906064603 | 21 | 5 | 0.0 | 3.2 | 0.00 | 0.00 | 0.00 | 51 | 1019.8 |
| 20260906064059 | 21 | 0 | 0.0 | 3.2 | 0.00 | 0.00 | 0.00 | 50 | 1019.7 |
| 20260906063558 | 21 | 5 | 0.0 | 3.2 | 0.00 | 0.00 | 0.00 | 52 | 1019.8 |
| 20260906063104 | 21 | 0 | 0.0 | 3.2 | 0.00 | 0.00 | 0.00 | 51 | 1019.8 |
| 20260906062558 | 21 | 5 | 0.0 | 1.6 | 0.00 | 0.00 | 0.00 | 50 | 1019.8 |
| 20260906062100 | 21 | 0 | 0.0 | 6.4 | 0.00 | 0.00 | 0.00 | 48 | 1019.8 |
| 20260906061607 | 21 | 0 | 0.0 | 6.4 | 0.00 | 0.00 | 0.00 | 48 | 1019.8 |
| 20260906061058 | 21 | 5 | 3.2 | 8.0 | 0.00 | 0.00 | 0.00 | 46 | 1019.7 |
| 20260906060601 | 21 | 14 | 3.2 | 8.0 | 0.00 | 0.00 | 0.00 | 46 | 1019.4 |
| 20260906060106 | 21 | 352 | 3.2 | 6.4 | 0.00 | 0.00 | 0.00 | 48 | 1019.3 |
| 20260906055558 | 21 | 12 | 3.2 | 6.4 | 0.00 | 0.00 | 0.00 | 53 | 1019.5 |
| 20260906055059 | 21 | 101 | 0.0 | 3.2 | 0.00 | 0.00 | 0.00 | 54 | 1019.7 |
| 20260906054607 | 21 | 0 | 0.0 | 3.2 | 0.00 | 0.00 | 0.00 | 50 | 1019.9 |
| 20260906054059 | 21 | 0 | 0.0 | 3.2 | 0.00 | 0.00 | 0.00 | 54 | 1020.0 |
| 20260906053558 | 21 | 0 | 0.0 | 3.2 | 0.00 | 0.00 | 0.00 | 47 | 1020.2 |
| 20260906053118 | 21 | 0 | 0.0 | 6.4 | 0.00 | 0.00 | 0.00 | 47 | 1020.1 |
| 20260906052558 | 22 | 137 | 1.6 | 9.7 | 0.00 | 0.00 | 0.00 | 46 | 1020.1 |
| 20260906052058 | 22 | 136 | 3.2 | 11.3 | 0.00 | 0.00 | 0.00 | 46 | 1020.4 |
| 20260906051601 | 22 | 136 | 3.2 | 11.3 | 0.00 | 0.00 | 0.00 | 47 | 1020.4 |
| 20260906051058 | 22 | 115 | 4.8 | 11.3 | 0.00 | 0.00 | 0.00 | 46 | 1020.2 |
| 20260906050558 | 22 | 148 | 0.0 | 1.6 | 0.00 | 0.00 | 0.00 | 45 | 1020.0 |
| 20260906050107 | 22 | 0 | 0.0 | 6.4 | 0.00 | 0.00 | 0.00 | 45 | 1019.7 |
| 20260906045600 | 22 | 0 | 0.0 | 6.4 | 0.00 | 0.00 | 0.00 | 45 | 1019.6 |
| 20260906045059 | 22 | 0 | 1.6 | 6.4 | 0.00 | 0.00 | 0.00 | 44 | 1019.5 |
| 20260906044621 | 22 | 207 | 0.0 | 4.8 | 0.00 | 0.00 | 0.00 | 45 | 1019.5 |
| 20260906044058 | 22 | 0 | 0.0 | 4.8 | 0.00 | 0.00 | 0.00 | 46 | 1019.5 |
| 20260906043558 | 22 | 231 | 1.6 | 4.8 | 0.00 | 0.00 | 0.00 | 47 | 1019.5 |
| 20260906043105 | 21 | 231 | 1.6 | 3.2 | 0.00 | 0.00 | 0.00 | 49 | 1019.5 |
| 20260906042558 | 21 | 0 | 0.0 | 4.8 | 0.00 | 0.00 | 0.00 | 48 | 1019.6 |
| 20260906042058 | 21 | 0 | 0.0 | 9.7 | 0.00 | 0.00 | 0.00 | 48 | 1019.6 |
| 20260906041604 | 22 | 254 | 1.6 | 9.7 | 0.00 | 0.00 | 0.00 | 45 | 1019.7 |
| 20260906041058 | 22 | 259 | 0.0 | 6.4 | 0.00 | 0.00 | 0.00 | 44 | 1019.4 |
| 20260906040558 | 22 | 0 | 0.0 | 8.0 | 0.00 | 0.00 | 0.00 | 43 | 1019.2 |
| 20260906040107 | 23 | 0 | 1.6 | 8.0 | 0.00 | 0.00 | 0.00 | 42 | 1019.1 |
| 20260906035602 | 23 | 5 | 0.0 | 4.8 | 0.00 | 0.00 | 0.00 | 39 | 1018.9 |
| 20260906035058 | 23 | 0 | 1.6 | 4.8 | 0.00 | 0.00 | 0.00 | 38 | 1018.7 |
| 20260906034600 | 23 | 72 | 0.0 | 4.8 | 0.00 | 0.00 | 0.00 | 39 | 1018.7 |
| 20260906034101 | 23 | 42 | 1.6 | 4.8 | 0.00 | 0.00 | 0.00 | 38 | 1018.4 |
| 20260906033558 | 23 | 27 | 0.0 | 1.6 | 0.00 | 0.00 | 0.00 | 39 | 1018.3 |
| 20260906033100 | 23 | 0 | 0.0 | 3.2 | 0.00 | 0.00 | 0.00 | 40 | 1018.5 |
| 20260906032558 | 23 | 0 | 0.0 | 3.2 | 0.00 | 0.00 | 0.00 | 40 | 1018.6 |
| 20260906032058 | 23 | 76 | 0.0 | 4.8 | 0.00 | 0.00 | 0.00 | 40 | 1018.5 |
| 20260906031604 | 23 | 0 | 0.0 | 6.4 | 0.00 | 0.00 | 0.00 | 39 | 1018.5 |
| 20260906031058 | 23 | 155 | 1.6 | 8.0 | 0.00 | 0.00 | 0.00 | 38 | 1018.4 |
| 20260906030558 | 23 | 0 | 1.6 | 8.0 | 0.00 | 0.00 | 0.00 | 39 | 1018.3 |
| 20260906030104 | 24 | 45 | 1.6 | 6.4 | 0.00 | 0.00 | 0.00 | 38 | 1018.1 |
| 20260906025558 | 25 | 15 | 0.0 | 6.4 | 0.00 | 0.00 | 0.00 | 37 | 1017.8 |
| 20260906025101 | 25 | 15 | 3.2 | 6.4 | 0.00 | 0.00 | 0.00 | 37 | 1017.9 |
| 20260906024623 | 26 | 17 | 1.6 | 12.9 | 0.00 | 0.00 | 0.00 | 36 | 1017.8 |
| 20260906024100 | 26 | 294 | 3.2 | 12.9 | 0.00 | 0.00 | 0.00 | 34 | 1017.8 |
| 20260906023558 | 25 | 303 | 3.2 | 12.9 | 0.00 | 0.00 | 0.00 | 35 | 1017.8 |
| 20260906023107 | 25 | 290 | 1.6 | 6.4 | 0.00 | 0.00 | 0.00 | 35 | 1017.7 |
| 20260906022558 | 26 | 20 | 0.0 | 8.0 | 0.00 | 0.00 | 0.00 | 36 | 1017.6 |
| 20260906022058 | 26 | 0 | 3.2 | 8.0 | 0.00 | 0.00 | 0.00 | 35 | 1017.4 |
| 20260906021608 | 26 | 21 | 1.6 | 11.3 | 0.00 | 0.00 | 0.00 | 34 | 1017.4 |
| 20260906021100 | 27 | 315 | 4.8 | 12.9 | 0.00 | 0.00 | 0.00 | 33 | 1017.5 |
| 20260906020559 | 27 | 296 | 4.8 | 12.9 | 0.00 | 0.00 | 0.00 | 33 | 1017.6 |
| 20260906020106 | 26 | 249 | 4.8 | 12.9 | 0.00 | 0.00 | 0.00 | 34 | 1017.6 |
| 20260906015558 | 26 | 278 | 3.2 | 9.7 | 0.00 | 0.00 | 0.00 | 35 | 1017.6 |
| 20260906015058 | 26 | 271 | 3.2 | 11.3 | 0.00 | 0.00 | 0.00 | 35 | 1017.7 |
| 20260906014602 | 26 | 268 | 4.8 | 11.3 | 0.00 | 0.00 | 0.00 | 35 | 1017.6 |
| 20260906014059 | 26 | 270 | 6.4 | 12.9 | 0.00 | 0.00 | 0.00 | 34 | 1017.5 |
| 20260906013558 | 27 | 282 | 6.4 | 12.9 | 0.00 | 0.00 | 0.00 | 32 | 1017.5 |
| 20260906013104 | 27 | 272 | 4.8 | 17.7 | 0.00 | 0.00 | 0.00 | 32 | 1017.4 |
| 20260906012558 | 27 | 290 | 8.0 | 17.7 | 0.00 | 0.00 | 0.00 | 32 | 1017.3 |
| 20260906012058 | 27 | 290 | 6.4 | 16.1 | 0.00 | 0.00 | 0.00 | 32 | 1017.3 |
| 20260906011605 | 27 | 284 | 6.4 | 14.5 | 0.00 | 0.00 | 0.00 | 32 | 1017.4 |
| 20260906011059 | 27 | 284 | 6.4 | 11.3 | 0.00 | 0.00 | 0.00 | 31 | 1017.4 |
| 20260906010558 | 27 | 312 | 6.4 | 16.1 | 0.00 | 0.00 | 0.00 | 31 | 1017.4 |
| 20260906010131 | 28 | 273 | 9.7 | 17.7 | 0.00 | 0.00 | 0.00 | 30 | 1017.3 |
| 20260906005604 | 28 | 319 | 9.7 | 17.7 | 0.00 | 0.00 | 0.00 | 30 | 1017.4 |
| 20260906005058 | 28 | 280 | 8.0 | 16.1 | 0.00 | 0.00 | 0.00 | 30 | 1017.4 |
| 20260906004604 | 28 | 287 | 8.0 | 22.5 | 0.00 | 0.00 | 0.00 | 29 | 1017.4 |
| 20260906004059 | 29 | 288 | 9.7 | 22.5 | 0.00 | 0.00 | 0.00 | 29 | 1017.4 |
| 20260906003559 | 29 | 296 | 12.9 | 22.5 | 0.00 | 0.00 | 0.00 | 28 | 1017.5 |
| 20260906003105 | 29 | 319 | 9.7 | 20.9 | 0.00 | 0.00 | 0.00 | 28 | 1017.6 |
| 20260906002558 | 30 | 261 | 9.7 | 20.9 | 0.00 | 0.00 | 0.00 | 28 | 1017.5 |
| 20260906002102 | 30 | 323 | 11.3 | 20.9 | 0.00 | 0.00 | 0.00 | 27 | 1017.6 |
| 20260906001613 | 30 | 282 | 6.4 | 12.9 | 0.00 | 0.00 | 0.00 | 26 | 1017.6 |
| 20260906001058 | 31 | 323 | 3.2 | 12.9 | 0.00 | 0.00 | 0.00 | 25 | 1017.5 |
| 20260906000558 | 31 | 303 | 3.2 | 12.9 | 0.00 | 0.00 | 0.00 | 25 | 1017.4 |
| 20260906000104 | 31 | 360 | 3.2 | 11.3 | 0.00 | 0.00 | 0.00 | 25 | 1017.4 |
| 20260905235559 | 31 | 316 | 4.8 | 11.3 | 0.00 | 0.00 | 0.00 | 25 | 1017.4 |
| 20260905235058 | 31 | 306 | 3.2 | 8.0 | 0.00 | 0.00 | 0.00 | 25 | 1017.4 |
| 20260905234608 | 31 | 319 | 3.2 | 8.0 | 0.00 | 0.00 | 0.00 | 24 | 1017.4 |
| 20260905234059 | 31 | 294 | 3.2 | 6.4 | 0.00 | 0.00 | 0.00 | 25 | 1017.4 |
| 20260905233559 | 31 | 304 | 1.6 | 4.8 | 0.00 | 0.00 | 0.00 | 25 | 1017.4 |
| 20260905233100 | 31 | 355 | 0.0 | 4.8 | 0.00 | 0.00 | 0.00 | 24 | 1017.2 |
| 20260905232601 | 31 | 17 | 0.0 | 8.0 | 0.00 | 0.00 | 0.00 | 29 | 1017.1 |
| 20260905232058 | 31 | 0 | 1.6 | 8.0 | 0.00 | 0.00 | 0.00 | 25 | 1017.2 |
| 20260905231603 | 31 | 351 | 1.6 | 6.4 | 0.00 | 0.00 | 0.00 | 32 | 1017.1 |
| 20260905231058 | 31 | 20 | 1.6 | 12.9 | 0.00 | 0.00 | 0.00 | 30 | 1017.1 |
| 20260905230604 | 31 | 29 | 4.8 | 12.9 | 0.00 | 0.00 | 0.00 | 26 | 1017.0 |
| 20260905230125 | 31 | 29 | 0.0 | 4.8 | 0.00 | 0.00 | 0.00 | 27 | 1017.0 |
| 20260905225601 | 31 | 0 | 0.0 | 8.0 | 0.00 | 0.00 | 0.00 | 27 | 1016.8 |
| 20260905225058 | 31 | 0 | 0.0 | 8.0 | 0.00 | 0.00 | 0.00 | 28 | 1016.9 |
| 20260905224603 | 31 | 5 | 0.0 | 6.4 | 0.00 | 0.00 | 0.00 | 28 | 1016.7 |
| 20260905224058 | 32 | 0 | 0.0 | 6.4 | 0.00 | 0.00 | 0.00 | 24 | 1016.9 |